Simultaneous Nadir Overpasses (SNOs) Predictions

Prediction of SNOs between FY3D and METOP-A Satellite Orbit:

Table of predicted SNOs for the next 14.0 days since TLE Epoch: 10/19/2019
Index Date (FY3D) Time (FY3D) Lat,Lon (FY3D) SZA (FY3D ) Date (METOP-A) Time (METOP-A) Lat,Lon (METOP-A) SZA (METOP-A ) Distance(km) Time Diff (sec)
1 10/24/2019 14:54:49 -75.50, 122.38 92.59 10/24/2019 14:55:55 -75.46, 125.64 92.74 91.05 66
2 10/24/2019 15:45:30 75.31, -69.74 87.23 10/24/2019 15:46:39 75.27, -67.59 87.10 60.99 69
3 10/24/2019 16:36:12 -75.21, 97.88 92.88 10/24/2019 16:37:23 -75.16, 99.41 93.00 43.86 71
4 10/24/2019 17:26:54 75.07, -94.39 86.98 10/24/2019 17:28:06 75.01, -93.66 86.89 21.77 72
5 10/24/2019 18:17:36 -74.96, 73.22 93.13 10/24/2019 18:18:49 -74.95, 73.48 93.16 7.79 73
6 10/24/2019 19:08:20 74.92,-119.34 86.84 10/24/2019 19:09:30 74.90,-119.32 86.81 2.24 70
7 10/24/2019 19:59:04 -74.91, 48.00 93.16 10/24/2019 20:00:12 -74.88, 47.96 93.20 3.39 68
8 10/24/2019 20:49:49 74.91,-144.69 86.86 10/24/2019 20:50:52 74.88,-144.71 86.82 3.62 63
9 10/24/2019 21:40:33 -74.90, 22.65 93.14 10/24/2019 21:41:33 -74.91, 22.70 93.15 1.78 60
10 10/24/2019 22:31:18 74.90,-170.04 86.87 10/24/2019 22:32:13 74.91,-169.97 86.87 2.13 55
11 10/24/2019 23:22:02 -74.90, -2.71 93.13 10/24/2019 23:22:55 -74.89, -2.69 93.14 0.62 53
12 10/25/2019 00:12:47 74.90, 164.60 86.89 10/25/2019 00:13:35 74.89, 164.64 86.88 1.29 48
13 10/25/2019 01:03:31 -74.89, -28.06 93.11 10/25/2019 01:04:17 -74.88, -28.08 93.13 1.83 46
14 10/25/2019 01:54:16 74.89, 139.25 86.91 10/25/2019 01:54:57 74.87, 139.25 86.88 2.16 41
15 10/25/2019 02:45:00 -74.88, -53.41 93.09 10/25/2019 02:45:38 -74.91, -53.34 93.08 3.18 38
16 10/25/2019 03:35:45 74.89, 113.89 86.93 10/25/2019 03:36:18 74.90, 113.99 86.94 3.30 33
17 10/25/2019 04:26:29 -74.88, -78.77 93.08 10/25/2019 04:27:00 -74.89, -78.73 93.07 1.50 31
18 10/25/2019 05:17:14 74.88, 88.54 86.94 10/25/2019 05:17:40 74.89, 88.60 86.94 1.72 26
19 10/25/2019 06:07:58 -74.87,-104.12 93.06 10/25/2019 06:08:22 -74.87,-104.12 93.06 0.28 24
20 10/25/2019 06:58:43 74.87, 63.19 86.96 10/25/2019 06:59:02 74.87, 63.21 86.95 0.96 19
21 10/25/2019 07:49:27 -74.87,-129.47 93.04 10/25/2019 07:49:44 -74.85,-129.51 93.06 1.91 17
22 10/25/2019 08:40:12 74.87, 37.83 86.98 10/25/2019 08:40:24 74.85, 37.82 86.96 2.18 12
23 10/25/2019 09:30:56 -74.86,-154.83 93.02 10/25/2019 09:31:05 -74.88,-154.77 93.00 3.00 9
24 10/25/2019 10:21:41 74.86, 12.48 87.00 10/25/2019 10:21:45 74.88, 12.56 87.01 2.99 4
25 10/25/2019 11:12:25 -74.85, 179.82 93.01 10/25/2019 11:12:27 -74.86, 179.84 93.00 1.32 2
26 10/25/2019 12:03:10 74.86, -12.88 87.01 10/25/2019 12:03:07 74.86, -12.83 87.02 1.34 3
27 10/25/2019 12:53:54 -74.85, 154.46 92.99 10/25/2019 12:53:49 -74.85, 154.45 92.99 0.45 5
28 10/25/2019 13:44:39 74.85, -38.23 87.03 10/25/2019 13:44:29 74.84, -38.22 87.03 0.75 10
29 10/25/2019 14:35:23 -74.84, 129.11 92.97 10/25/2019 14:35:11 -74.83, 129.06 92.98 2.09 12
30 10/25/2019 15:26:08 74.84, -63.58 87.05 10/25/2019 15:25:51 74.82, -63.62 87.03 2.28 17
31 10/25/2019 16:16:52 -74.83, 103.76 92.95 10/25/2019 16:16:32 -74.86, 103.80 92.93 2.89 20
32 10/25/2019 17:07:37 74.84, -88.94 87.07 10/25/2019 17:07:12 74.85, -88.87 87.09 2.71 25
33 10/25/2019 17:58:21 -74.83, 78.40 92.94 10/25/2019 17:57:54 -74.84, 78.41 92.92 1.29 27
34 10/25/2019 18:49:06 74.83,-114.29 87.08 10/25/2019 18:48:34 74.84,-114.26 87.09 1.01 32
35 10/25/2019 19:39:50 -74.82, 53.05 92.92 10/25/2019 19:39:16 -74.82, 53.02 92.91 0.85 34
36 10/25/2019 20:30:35 74.82,-139.65 87.10 10/25/2019 20:29:56 74.82,-139.66 87.10 0.75 39
37 10/25/2019 21:21:19 -74.82, 27.70 92.90 10/25/2019 21:20:38 -74.80, 27.63 92.91 2.34 41
38 10/25/2019 22:12:04 74.82,-165.00 87.12 10/25/2019 22:11:18 74.80,-165.05 87.11 2.44 46
39 10/25/2019 23:02:48 -74.81, 2.34 92.88 10/25/2019 23:01:59 -74.83, 2.37 92.85 2.84 49
40 10/25/2019 23:53:33 74.81, 169.65 87.14 10/25/2019 23:52:39 74.83, 169.70 87.16 2.48 54
41 10/26/2019 00:44:17 -74.80, -23.01 92.87 10/26/2019 00:43:21 -74.82, -23.02 92.85 1.41 56
42 10/26/2019 01:35:02 74.81, 144.29 87.15 10/26/2019 01:34:01 74.81, 144.31 87.17 0.77 61
43 10/26/2019 02:25:46 -74.80, -48.37 92.85 10/26/2019 02:24:43 -74.80, -48.41 92.84 1.26 63
44 10/26/2019 03:16:31 74.80, 118.94 87.17 10/26/2019 03:15:23 74.79, 118.91 87.18 0.96 68
45 10/26/2019 04:07:15 -74.79, -73.72 92.83 10/26/2019 04:06:05 -74.78, -73.80 92.83 2.63 70
46 10/26/2019 04:57:59 74.75, 93.72 87.14 10/26/2019 04:56:45 74.78, 93.52 87.18 6.55 74
47 10/26/2019 05:48:42 -74.69, -98.81 92.92 10/26/2019 05:47:28 -74.71, -99.32 92.87 15.18 74
48 10/26/2019 06:39:23 74.50, 69.02 86.89 10/26/2019 06:38:13 74.46, 67.36 86.93 49.26 70
49 10/26/2019 07:30:05 -74.39,-123.39 93.22 10/26/2019 07:28:56 -74.40,-125.47 93.12 62.13 69
50 10/26/2019 08:20:46 74.20, 44.42 86.59 10/26/2019 08:19:40 74.20, 41.36 86.72 92.71 66




NCC Satellite Simultaneous Nadir Overpasses (SNOs) Prediction Service
